Satellite: NOAA-12 Catalog number: 21263 Epoch time: 13045.55164235 Element set: 721 Inclination: 098.7111 deg RA of node: 071.8419 deg Eccentricity: 0.0013119 Arg of perigee: 214.4399 deg Mean anomaly: 145.5931 deg Mean motion: 14.25546758 rev/day Decay rate: 3.6e-07 rev/day^2 Epoch rev: 13108 Checksum: 283
Satellite: MET-3/5 Catalog number: 21655 Epoch time: 13045.48636924 Element set: 620 Inclination: 082.5605 deg RA of node: 340.9905 deg Eccentricity: 0.0014505 Arg of perigee: 078.3842 deg Mean anomaly: 281.8907 deg Mean motion: 13.17046014 rev/day Decay rate: -2.26e-06 rev/day^2 Epoch rev: 3378 Checksum: 297
Satellite: MET-2/21 Catalog number: 22782 Epoch time: 13045.06481541 Element set: 664 Inclination: 082.5494 deg RA of node: 200.5918 deg Eccentricity: 0.0022678 Arg of perigee: 191.6023 deg Mean anomaly: 306.0745 deg Mean motion: 13.83698402 rev/day Decay rate: 9.2e-07 rev/day^2 Epoch rev: 98261 Checksum: 305
Satellite: OKEAN-4 Catalog number: 23317 Epoch time: 13045.56303599 Element set: 139 Inclination: 082.5417 deg RA of node: 164.5323 deg Eccentricity: 0.0019640 Arg of perigee: 272.2498 deg Mean anomaly: 087.6469 deg Mean motion: 14.84247081 rev/day Decay rate: 7.48e-06 rev/day^2 Epoch rev: 99075 Checksum: 329
Satellite: NOAA-14 Catalog number: 23455 Epoch time: 13045.49378626 Element set: 203 Inclination: 098.8120 deg RA of node: 131.7648 deg Eccentricity: 0.0009626 Arg of perigee: 352.4872 deg Mean anomaly: 007.6159 deg Mean motion: 14.13892659 rev/day Decay rate: 7.0e-08 rev/day^2 Epoch rev: 93503 Checksum: 314
Satellite: NOAA-15 Catalog number: 25338 Epoch time: 13045.48743330 Element set: 618 Inclination: 098.7139 deg RA of node: 036.4171 deg Eccentricity: 0.0011389 Arg of perigee: 121.9465 deg Mean anomaly: 238.2825 deg Mean motion: 14.25178247 rev/day Decay rate: 1.74e-06 rev/day^2 Epoch rev: 76736 Checksum: 318
Satellite: RESURS Catalog number: 25394 Epoch time: 13045.91473670 Element set: 306 Inclination: 098.3489 deg RA of node: 027.7018 deg Eccentricity: 0.0000721 Arg of perigee: 189.1726 deg Mean anomaly: 223.4843 deg Mean motion: 14.24320068 rev/day Decay rate: 3.2e-07 rev/day^2 Epoch rev: 75895 Checksum: 297
Satellite: FENGYUN1 Catalog number: 25730 Epoch time: 13045.46471381 Element set: 807 Inclination: 098.8682 deg RA of node: 006.5788 deg Eccentricity: 0.0024728 Arg of perigee: 032.7763 deg Mean anomaly: 114.6430 deg Mean motion: 14.10172622 rev/day Decay rate: 1.957e-05 rev/day^2 Epoch rev: 70874 Checksum: 307
Satellite: OKEAN-0 Catalog number: 25860 Epoch time: 13045.57457323 Element set: 868 Inclination: 097.9747 deg RA of node: 009.7908 deg Eccentricity: 0.0001689 Arg of perigee: 128.6893 deg Mean anomaly: 009.2417 deg Mean motion: 14.74477468 rev/day Decay rate: 3.74e-06 rev/day^2 Epoch rev: 73028 Checksum: 348
Satellite: NOAA-16 Catalog number: 26536 Epoch time: 13045.45738014 Element set: 96 Inclination: 099.0588 deg RA of node: 096.9098 deg Eccentricity: 0.0011209 Arg of perigee: 120.1380 deg Mean anomaly: 240.0891 deg Mean motion: 14.12839907 rev/day Decay rate: 1.92e-06 rev/day^2 Epoch rev: 63924 Checksum: 311
Satellite: NOAA-17 Catalog number: 27453 Epoch time: 13045.28211420 Element set: 23 Inclination: 098.3180 deg RA of node: 065.8445 deg Eccentricity: 0.0012030 Arg of perigee: 161.8892 deg Mean anomaly: 198.2715 deg Mean motion: 14.24539918 rev/day Decay rate: 1.42e-06 rev/day^2 Epoch rev: 55322 Checksum: 282
Satellite: NOAA-18 Catalog number: 28654 Epoch time: 13045.31640698 Element set: 507 Inclination: 099.0822 deg RA of node: 011.8656 deg Eccentricity: 0.0014212 Arg of perigee: 191.1443 deg Mean anomaly: 168.9430 deg Mean motion: 14.11771640 rev/day Decay rate: 3.83e-06 rev/day^2 Epoch rev: 39872 Checksum: 302
Satellite: NOAA-19 Catalog number: 33591 Epoch time: 13045.37878797 Element set: 692 Inclination: 098.8912 deg RA of node: 348.4847 deg Eccentricity: 0.0014805 Arg of perigee: 058.4496 deg Mean anomaly: 301.8111 deg Mean motion: 14.11459432 rev/day Decay rate: 3.50e-06 rev/day^2 Epoch rev: 20717 Checksum: 330
/EX SB KEPS @ AMSAT $ORB13045.M Orbital Elements 13045.MISC
HR AMSAT ORBITAL ELEMENTS FOR MANNED AND MISCELLANEOUS SATELLITES FROM WA5QGD FORT WORTH,TX February 14, 2013 BID: ORB13045.M TO ALL RADIO AMATEURS BT
Satellite: HUBBLE Catalog number: 20580 Epoch time: 13045.90678200 Element set: 175 Inclination: 028.4704 deg RA of node: 354.2445 deg Eccentricity: 0.0003589 Arg of perigee: 131.6589 deg Mean anomaly: 228.4323 deg Mean motion: 15.03284709 rev/day Decay rate: 1.309e-05 rev/day^2 Epoch rev: 5127 Checksum: 282
Satellite: ISS Catalog number: 25544 Epoch time: 13045.82393914 Element set: 220 Inclination: 051.6493 deg RA of node: 356.1211 deg Eccentricity: 0.0012147 Arg of perigee: 274.1187 deg Mean anomaly: 124.7762 deg Mean motion: 15.52493589 rev/day Decay rate: 8.535e-05 rev/day^2 Epoch rev: 81570 Checksum: 298
Satellite: CO-58 Catalog number: 28895 Epoch time: 13045.15045026 Element set: 404 Inclination: 097.8838 deg RA of node: 266.3780 deg Eccentricity: 0.0018622 Arg of perigee: 108.3190 deg Mean anomaly: 252.0026 deg Mean motion: 14.60962005 rev/day Decay rate: 2.58e-06 rev/day^2 Epoch rev: 38898 Checksum: 316
Satellite: FALCON Catalog number: 30776 Epoch time: 13045.56079534 Element set: 550 Inclination: 035.4301 deg RA of node: 234.1867 deg Eccentricity: 0.0002204 Arg of perigee: 310.6799 deg Mean anomaly: 090.5647 deg Mean motion: 15.09558679 rev/day Decay rate: 3.197e-05 rev/day^2 Epoch rev: 32687 Checksum: 315
Satellite: MAST Catalog number: 31126 Epoch time: 13045.13290355 Element set: 683 Inclination: 097.8761 deg RA of node: 048.1167 deg Eccentricity: 0.0094464 Arg of perigee: 076.5283 deg Mean anomaly: 284.6420 deg Mean motion: 14.54430789 rev/day Decay rate: 3.58e-06 rev/day^2 Epoch rev: 30943 Checksum: 309
Satellite: CAPE1 Catalog number: 31130 Epoch time: 13045.43320773 Element set: 695 Inclination: 097.8898 deg RA of node: 044.7195 deg Eccentricity: 0.0102078 Arg of perigee: 090.3302 deg Mean anomaly: 270.9622 deg Mean motion: 14.53297813 rev/day Decay rate: 3.20e-06 rev/day^2 Epoch rev: 30895 Checksum: 295
Satellite: COMPASS Catalog number: 32787 Epoch time: 13045.74615932 Element set: 544 Inclination: 097.7685 deg RA of node: 107.4373 deg Eccentricity: 0.0014135 Arg of perigee: 351.1689 deg Mean anomaly: 123.9969 deg Mean motion: 14.84983583 rev/day Decay rate: 1.404e-05 rev/day^2 Epoch rev: 25979 Checksum: 345
Satellite: AAUSAT2 Catalog number: 32788 Epoch time: 13045.17453575 Element set: 534 Inclination: 097.7691 deg RA of node: 107.4143 deg Eccentricity: 0.0013683 Arg of perigee: 352.8253 deg Mean anomaly: 068.6901 deg Mean motion: 14.85397256 rev/day Decay rate: 1.383e-05 rev/day^2 Epoch rev: 25974 Checksum: 330
Satellite: DO-64 Catalog number: 32789 Epoch time: 13045.74601624 Element set: 558 Inclination: 097.7830 deg RA of node: 111.0727 deg Eccentricity: 0.0013223 Arg of perigee: 345.3955 deg Mean anomaly: 161.7586 deg Mean motion: 14.87600276 rev/day Decay rate: 2.440e-05 rev/day^2 Epoch rev: 25991 Checksum: 318
Satellite: CO-66 Catalog number: 32791 Epoch time: 13044.76794985 Element set: 530 Inclination: 097.7690 deg RA of node: 105.9947 deg Eccentricity: 0.0014683 Arg of perigee: 354.9877 deg Mean anomaly: 125.3634 deg Mean motion: 14.84218389 rev/day Decay rate: 1.106e-05 rev/day^2 Epoch rev: 25956 Checksum: 363
Satellite: RS-30 Catalog number: 32953 Epoch time: 13045.79998548 Element set: 593 Inclination: 082.5046 deg RA of node: 144.2953 deg Eccentricity: 0.0019806 Arg of perigee: 137.7068 deg Mean anomaly: 222.5543 deg Mean motion: 12.43031335 rev/day Decay rate: 1.0e-07 rev/day^2 Epoch rev: 21470 Checksum: 297
Satellite: METEOR-M Catalog number: 35865 Epoch time: 13045.71331031 Element set: 214 Inclination: 098.6205 deg RA of node: 101.0498 deg Eccentricity: 0.0003344 Arg of perigee: 070.4486 deg Mean anomaly: 289.7042 deg Mean motion: 14.21879914 rev/day Decay rate: -1.2e-07 rev/day^2 Epoch rev: 17706 Checksum: 276
Satellite: RS-38 Catalog number: 35869 Epoch time: 13045.76711682 Element set: 186 Inclination: 098.6148 deg RA of node: 101.0498 deg Eccentricity: 0.0005513 Arg of perigee: 070.4111 deg Mean anomaly: 289.7664 deg Mean motion: 14.22112560 rev/day Decay rate: 3.0e-08 rev/day^2 Epoch rev: 17709 Checksum: 300
Satellite: JUGNU Catalog number: 37839 Epoch time: 13045.19478227 Element set: 331 Inclination: 019.9635 deg RA of node: 332.0371 deg Eccentricity: 0.0019382 Arg of perigee: 011.1535 deg Mean anomaly: 348.9297 deg Mean motion: 14.12126573 rev/day Decay rate: 6.20e-06 rev/day^2 Epoch rev: 6949 Checksum: 300
Satellite: SRMSAT Catalog number: 37841 Epoch time: 13045.08414855 Element set: 332 Inclination: 019.9732 deg RA of node: 342.3450 deg Eccentricity: 0.0011678 Arg of perigee: 325.1251 deg Mean anomaly: 034.8404 deg Mean motion: 14.10199175 rev/day Decay rate: 2.64e-06 rev/day^2 Epoch rev: 6937 Checksum: 280
Satellite: RAX-2 Catalog number: 37853 Epoch time: 13045.90357814 Element set: 426 Inclination: 101.7121 deg RA of node: 203.0140 deg Eccentricity: 0.0239232 Arg of perigee: 017.5307 deg Mean anomaly: 343.3975 deg Mean motion: 14.82346775 rev/day Decay rate: 1.787e-05 rev/day^2 Epoch rev: 7032 Checksum: 282
Satellite: AUBIESAT Catalog number: 37854 Epoch time: 13045.37471623 Element set: 424 Inclination: 101.7153 deg RA of node: 202.8668 deg Eccentricity: 0.0239644 Arg of perigee: 017.9529 deg Mean anomaly: 342.9956 deg Mean motion: 14.82941542 rev/day Decay rate: 2.059e-05 rev/day^2 Epoch rev: 7025 Checksum: 310
